[[{"header":{"parameterUnit":"m.s-1","parameterCategory":2,"la1":30.2991,"la2":30.254,"lo1":-89.0895,"lo2":-89.0444,"dy":0.0017,"dx":0.0017,"nx":28,"ny":28,"refTime":"2023-10-13T03:00:00:Z","depth":"0","parameterNumber":2,"parameterNumberName":"U-component_of_CURRENTS"},"data":[0,0,0,0,0,0,0,0,0,0,0,0,0,0,0,0,0,0,0,0,0,0,0,0,0,0,0,0,0,0,0,0,0,0,0,0,0,0,0,0,0,0,0,0,0,0,0,0,0,0,0,0,0,0,0,0,0,0,0.4306,0.4306,0,0.4296,0.4296,0.4295,0.4317,0.4318,0.4319,0.432,0.4275,0.4273,0.4271,0,0,0,0,0,0,0,0,0,0,0,0,0,0.4342,0.4341,0.4306,0.4306,0.4307,0.4296,0.4296,0.4295,0.4317,0.4318,0.4319,0.432,0.4276,0.4273,0.4271,0,0,0,0,0,0,0,0,0,0,0,0,0,0.4325,0.434,0.4306,0.4318,0.432,0.4296,0.4296,0.4295,0.4317,0.4318,0.432,0.4321,0.4277,0.4274,0.427,0.4221,0,0,0.4261,0.4259,0,0,0,0,0,0,0,0,0.4326,0.4324,0.4316,0.4318,0.4319,0.4312,0.4292,0.427,0.4316,0.4314,0.432,0.4322,0.4285,0.4282,0.4272,0.4219,0.4217,0.426,0.4259,0.4257,0.4256,0,0,0,0,0,0,0,0.4327,0.4324,0.4299,0.4317,0.4318,0.4324,0.4323,0.4288,0.4288,0.4315,0.4317,0.4321,0.4286,0.4275,0.4271,0.4216,0.4261,0.4258,0.4256,0.4255,0.4165,0.4165,0,0,0,0,0,0,0.4333,0.4325,0.4299,0.4299,0.433,0.4322,0.4321,0.431,0.4289,0.4289,0.4319,0.4322,0.428,0.4275,0.427,0.4252,0.4257,0.4254,0.4252,0.4166,0.4165,0.4165,0,0,0,0,0,0,0.4334,0.433,0.43,0.4316,0.4313,0.4321,0.4308,0.4309,0.4307,0.4294,0.4293,0.4318,0.4281,0.4274,0.4249,0.4249,0.4253,0.425,0.4166,0.4166,0.4165,0.419,0,0,0,0,0,0,0.4335,0.433,0.4317,0.4315,0.4312,0.4291,0.4307,0.4308,0.4308,0.4311,0.4291,0.4289,0.4282,0.4254,0.4246,0.4245,0.4247,0.4167,0.4166,0.4165,0.4189,0.419,0.419,0,0,0,0,0,0.4336,0.431,0.4316,0.4313,0.4295,0.4291,0.4289,0.4299,0.4307,0.4302,0.4294,0.429,0.4244,0.4251,0.4242,0.424,0.4167,0.4166,0.4165,0.4189,0.419,0.419,0,0,0,0,0,0,0.4309,0.431,0.4317,0.429,0.4296,0.4297,0.4287,0.4296,0.4283,0.4284,0.4276,0.4272,0.4254,0.4235,0.4244,0.4211,0.4207,0.4204,0.4228,0.4228,0.4229,0.4236,0.4245,0,0,0,0,0,0.4299,0.4284,0.4293,0.427,0.4274,0.428,0.4278,0.4286,0.4281,0.4278,0.4268,0.4252,0.4238,0.4226,0.4207,0.4177,0.4176,0.4171,0.4172,0.4172,0.4171,0.4169,0.417,0.4161,0.4161,0.4161,0,0,0.4278,0.428,0.4268,0.4265,0.4267,0.4267,0.4281,0.4277,0.428,0.427,0.4261,0.425,0.423,0.4212,0.4201,0.4198,0.4176,0.4171,0.4172,0.417,0.4168,0.4169,0.417,0.4161,0.4161,0.4161,0,0,0.4244,0.4237,0.4223,0.423,0.4241,0.4248,0.425,0.4255,0.4263,0.4249,0.4252,0.4243,0.4208,0.4206,0.4198,0.4182,0.418,0.4174,0.4178,0.4176,0.4177,0.4178,0.4191,0.4193,0.4172,0.4172,0.4172,0,0.4224,0.4208,0.4218,0.4217,0.4222,0.4243,0.4239,0.4244,0.4242,0.4247,0.4249,0.4221,0.4208,0.4197,0.42,0.4184,0.4187,0.4182,0.4179,0.418,0.418,0.4193,0.4195,0.4173,0.4173,0.4173,0.4173,0,0.4189,0.4183,0.4176,0.4185,0.4191,0.4187,0.421,0.4215,0.4226,0.4235,0.423,0.4217,0.4206,0.4201,0.4194,0.4191,0.4194,0.4184,0.4183,0.4183,0.4196,0.4197,0.4175,0.4174,0.4174,0.4174,0,0,0.4134,0.4149,0.4147,0.4157,0.4177,0.4179,0.4189,0.4206,0.4217,0.4217,0.4224,0.4209,0.4215,0.4205,0.42,0.4197,0.4211,0.4193,0.4192,0.4216,0.4219,0.4272,0.4278,0.4202,0.4202,0.4202,0.4232,0,0.4109,0.4104,0.4117,0.4117,0.4124,0.4152,0.4164,0.4184,0.42,0.421,0.4214,0.4214,0.4214,0.4212,0.4211,0.421,0.4213,0.4204,0.4207,0.4207,0.4262,0.4281,0.4326,0.4361,0.4234,0.4234,0.4234,0,0.4078,0.4084,0.4076,0.4107,0.4111,0.4112,0.4144,0.4156,0.4185,0.4199,0.4207,0.4216,0.4222,0.4215,0.4225,0.422,0.4221,0.422,0.4221,0.4261,0.4262,0.4336,0.4368,0.4032,0.4236,0.4236,0.4236,0,0.405,0.406,0.4053,0.4059,0.4089,0.4094,0.4112,0.4147,0.4162,0.4191,0.4202,0.4217,0.4219,0.4226,0.4237,0.4232,0.4244,0.4236,0.4285,0.4289,0.4323,0.433,0.4039,0.4236,0.4236,0.4236,0.4236,0,0.4023,0.4021,0.4039,0.4036,0.4042,0.4072,0.4083,0.4111,0.414,0.4157,0.419,0.4205,0.422,0.4234,0.4242,0.428,0.4252,0.4296,0.4302,0.4334,0.4342,0.4049,0.3921,0.4237,0.4237,0.4237,0.4237,0,0.3989,0.3997,0.4,0.4022,0.4027,0.4032,0.4063,0.4076,0.4112,0.4133,0.4144,0.4191,0.4235,0.4255,0.4269,0.4292,0.4185,0.4327,0.4376,0.4388,0.415,0.4029,0.3803,0.37,0.4407,0.4408,0.441,0,0.3967,0.3962,0.398,0.398,0.3984,0.3997,0.401,0.4054,0.4067,0.4128,0.4132,0.419,0.4251,0.4315,0.4375,0.443,0.419,0.4471,0.4472,0.414,0.4007,0.3848,0.3764,0.4527,0.4529,0.4531,0.4533,0,0.3929,0.3934,0.3934,0.394,0.3945,0.3947,0.3965,0.3974,0.4027,0.406,0.4122,0.4187,0.4321,0.4399,0.4475,0.453,0.4248,0.451,0.414,0.4062,0.3896,0.38,0.4491,0.4548,0.4547,0.4545,0.4545,0.4544,0.3902,0.3887,0.3888,0.3894,0.3896,0.388,0.3846,0.3887,0.3905,0.3929,0.407,0.4128,0.4309,0.4463,0.4481,0.4394,0.4324,0.4267,0.4148,0.4012,0.3892,0.463,0.4706,0.4705,0.4704,0.4704,0.4704,0,0.3868,0.3847,0.3843,0.3825,0.3796,0.3814,0.3797,0.3749,0.3744,0.3851,0.3931,0.4023,0.4123,0.4199,0.4223,0.4013,0.393,0.3793,0.3513,0.3452,0.4086,0.4064,0.4035,0.4035,0.4035,0.4036,0.4036,0.4036,0.3841,0.381,0.3803,0.373,0.3703,0.3594,0.3554,0.3524,0.3557,0.3548,0.3559,0.3634,0.3596,0.3562,0.3375,0.3396,0.2999,0.2989,0.2747,0.3089,0.3119,0.3147,0.3084,0.285,0.2849,0.2123,0.2116,0.2111]},{"header":{"parameterUnit":"m.s-1","parameterCategory":2,"la1":30.2991,"la2":30.254,"lo1":-89.0895,"lo2":-89.0444,"dy":0.0017,"dx":0.0017,"nx":28,"ny":28,"refTime":"2023-10-13T03:00:00:Z","depth":"0","parameterNumber":3,"parameterNumberName":"V-component_of_CURRENTS"},"data":[0,0,0,0,0,0,0,0,0,0,0,0,0,0,0,0,0,0,0,0,0,0,0,0,0,0,0,0,0,0,0,0,0,0,0,0,0,0,0,0,0,0,0,0,0,0,0,0,0,0,0,0,0,0,0,0,0,0,-0.171,-0.171,0,-0.1752,-0.1752,-0.1753,-0.1766,-0.1766,-0.1766,-0.1766,-0.1849,-0.1851,-0.1854,0,0,0,0,0,0,0,0,0,0,0,0,0,-0.1666,-0.1667,-0.1709,-0.171,-0.171,-0.1752,-0.1752,-0.1753,-0.1766,-0.1766,-0.1766,-0.1766,-0.1848,-0.1851,-0.1854,0,0,0,0,0,0,0,0,0,0,0,0,0,-0.1695,-0.1667,-0.1709,-0.1721,-0.1723,-0.1751,-0.1752,-0.1753,-0.1767,-0.1766,-0.1766,-0.1765,-0.1847,-0.1851,-0.1854,-0.1885,0,0,-0.1866,-0.1867,0,0,0,0,0,0,0,0,-0.1693,-0.1697,-0.1719,-0.1721,-0.1722,-0.1753,-0.1767,-0.1799,-0.1767,-0.1751,-0.1766,-0.1765,-0.182,-0.1826,-0.1836,-0.1889,-0.1893,-0.1866,-0.1868,-0.187,-0.1871,0,0,0,0,0,0,0,-0.1691,-0.1695,-0.1727,-0.172,-0.1722,-0.1733,-0.1737,-0.1773,-0.1789,-0.1752,-0.1753,-0.1756,-0.1821,-0.1832,-0.1838,-0.1894,-0.1866,-0.1869,-0.1871,-0.1873,-0.1986,-0.1987,0,0,0,0,0,0,-0.1683,-0.1693,-0.1726,-0.1728,-0.1705,-0.1734,-0.1738,-0.1744,-0.1788,-0.1793,-0.1757,-0.1757,-0.1826,-0.1833,-0.1841,-0.1883,-0.187,-0.1873,-0.1875,-0.1985,-0.1986,-0.1987,0,0,0,0,0,0,-0.1682,-0.1686,-0.1724,-0.1711,-0.1716,-0.1735,-0.1742,-0.1745,-0.1755,-0.179,-0.1797,-0.1763,-0.1826,-0.1836,-0.1872,-0.1886,-0.1875,-0.1878,-0.1984,-0.1986,-0.1987,-0.1966,0,0,0,0,0,0,-0.1681,-0.1686,-0.1689,-0.171,-0.1717,-0.1744,-0.1742,-0.1746,-0.1758,-0.1758,-0.1799,-0.1806,-0.1826,-0.1866,-0.1876,-0.1891,-0.1881,-0.1983,-0.1985,-0.1986,-0.1966,-0.1966,-0.1967,0,0,0,0,0,-0.1679,-0.1689,-0.1689,-0.1693,-0.172,-0.1744,-0.1749,-0.1761,-0.1758,-0.1768,-0.179,-0.1804,-0.1882,-0.187,-0.1881,-0.1898,-0.1983,-0.1985,-0.1986,-0.1966,-0.1966,-0.1967,0,0,0,0,0,0,-0.1676,-0.1692,-0.1692,-0.1707,-0.1723,-0.1746,-0.1758,-0.1762,-0.1786,-0.1788,-0.1814,-0.1824,-0.186,-0.1884,-0.187,-0.1935,-0.1936,-0.194,-0.1916,-0.1917,-0.1918,-0.1903,-0.1884,0,0,0,0,0,-0.1675,-0.1685,-0.1701,-0.1714,-0.1722,-0.1738,-0.1749,-0.1756,-0.1779,-0.1789,-0.1813,-0.1845,-0.1878,-0.1899,-0.1931,-0.197,-0.1973,-0.1989,-0.1989,-0.199,-0.1986,-0.2006,-0.2007,-0.1993,-0.1993,-0.1993,0,0,-0.1676,-0.1688,-0.1692,-0.1714,-0.1728,-0.174,-0.1744,-0.1763,-0.1773,-0.1796,-0.1821,-0.1847,-0.1888,-0.1925,-0.1945,-0.1947,-0.1993,-0.1992,-0.1992,-0.1988,-0.2007,-0.2009,-0.201,-0.1994,-0.1994,-0.1994,0,0,-0.1686,-0.1695,-0.1705,-0.1717,-0.1736,-0.1747,-0.175,-0.1771,-0.1782,-0.1808,-0.1826,-0.1855,-0.1908,-0.1935,-0.1957,-0.1982,-0.1993,-0.2,-0.1996,-0.2015,-0.2016,-0.2017,-0.2007,-0.2007,-0.2004,-0.2004,-0.2004,0,-0.1686,-0.1698,-0.1713,-0.1725,-0.1731,-0.1747,-0.1755,-0.1773,-0.1802,-0.1811,-0.1814,-0.1879,-0.191,-0.1954,-0.1962,-0.1983,-0.1986,-0.1987,-0.2014,-0.2015,-0.2016,-0.2006,-0.2006,-0.2003,-0.2003,-0.2003,-0.2004,0,-0.1702,-0.1708,-0.1717,-0.1732,-0.1744,-0.1756,-0.1774,-0.1788,-0.1797,-0.1811,-0.1848,-0.1886,-0.1921,-0.1942,-0.1961,-0.1994,-0.1989,-0.2007,-0.2006,-0.2016,-0.2005,-0.2005,-0.2002,-0.2002,-0.2003,-0.2003,0,0,-0.1706,-0.1723,-0.1723,-0.1722,-0.1745,-0.1752,-0.1773,-0.1793,-0.1797,-0.183,-0.184,-0.1899,-0.191,-0.1936,-0.1966,-0.1988,-0.1995,-0.2001,-0.2002,-0.1979,-0.2016,-0.1929,-0.1922,-0.2019,-0.2019,-0.202,-0.1998,0,-0.171,-0.1719,-0.1731,-0.1735,-0.1737,-0.1753,-0.1767,-0.1786,-0.1803,-0.1819,-0.186,-0.1882,-0.1913,-0.1925,-0.1954,-0.1985,-0.1999,-0.1997,-0.2021,-0.2021,-0.1933,-0.1921,-0.1679,-0.1633,-0.1999,-0.1999,-0.1999,0,-0.1714,-0.1718,-0.1716,-0.172,-0.1723,-0.1729,-0.1739,-0.1753,-0.1784,-0.1797,-0.1829,-0.1855,-0.1894,-0.1914,-0.1965,-0.1963,-0.1987,-0.2008,-0.2008,-0.1934,-0.1935,-0.1688,-0.1621,-0.1613,-0.2,-0.2,-0.2,0,-0.1692,-0.1704,-0.1694,-0.1696,-0.1708,-0.171,-0.172,-0.1744,-0.1745,-0.1778,-0.1773,-0.1832,-0.1838,-0.1894,-0.1926,-0.1953,-0.1963,-0.2006,-0.1948,-0.1941,-0.1742,-0.1717,-0.1656,-0.2037,-0.2037,-0.2037,-0.2037,0,-0.1681,-0.1672,-0.168,-0.1673,-0.1657,-0.1683,-0.1674,-0.169,-0.1709,-0.168,-0.1754,-0.1731,-0.1834,-0.1849,-0.1905,-0.1901,-0.1943,-0.1931,-0.1929,-0.1727,-0.1702,-0.1693,-0.1785,-0.2036,-0.2037,-0.2037,-0.2037,0,-0.1642,-0.1653,-0.1637,-0.1644,-0.164,-0.1626,-0.1628,-0.1616,-0.1647,-0.1609,-0.1612,-0.1653,-0.1662,-0.1742,-0.1806,-0.1839,-0.184,-0.186,-0.1598,-0.1565,-0.1521,-0.1621,-0.1625,-0.1658,-0.1803,-0.1801,-0.1799,0,-0.1618,-0.1605,-0.1594,-0.157,-0.1566,-0.1554,-0.1533,-0.157,-0.1544,-0.1531,-0.1491,-0.1508,-0.1434,-0.1497,-0.1583,-0.164,-0.1726,-0.1472,-0.1492,-0.1465,-0.1578,-0.1661,-0.1697,-0.1214,-0.1207,-0.1202,-0.1198,0,-0.1559,-0.1554,-0.1533,-0.1485,-0.1457,-0.1421,-0.1396,-0.1354,-0.1358,-0.1278,-0.1159,-0.1097,-0.1182,-0.107,-0.1189,-0.1268,-0.1427,-0.1367,-0.1399,-0.1157,-0.1183,-0.1227,-0.1286,-0.115,-0.1155,-0.1158,-0.1161,-0.1163,-0.1496,-0.1465,-0.1431,-0.1379,-0.1339,-0.1249,-0.1122,-0.1057,-0.0915,-0.0641,-0.0757,-0.0427,-0.0453,-0.0575,-0.0805,-0.0937,-0.1163,-0.0883,-0.1018,-0.1113,-0.1107,-0.1056,-0.0894,-0.0897,-0.09,-0.0903,-0.0905,0,-0.1402,-0.1373,-0.1324,-0.1238,-0.1134,-0.1141,-0.0983,-0.0768,-0.0459,-0.0164,0.0063,0.0475,0.0413,0.0157,-0.0141,-0.0417,-0.0634,-0.0577,-0.0611,-0.0685,-0.0625,-0.0554,-0.0236,-0.0236,-0.0236,-0.0236,-0.0236,-0.0236,-0.1346,-0.1276,-0.1255,-0.1059,-0.0962,-0.0671,-0.0501,-0.0178,0.0137,0.0803,0.1269,0.1482,0.1391,0.0619,0.0113,-0.0104,-0.0399,-0.0437,-0.0717,-0.061,-0.0648,-0.0684,-0.0632,-0.0336,-0.0336,-0.0606,-0.0609,-0.0611]}],[{"header":{"parameterUnit":"m.s-1","parameterCategory":2,"la1":30.2991,"la2":30.254,"lo1":-89.0895,"lo2":-89.0444,"dy":0.0017,"dx":0.0017,"nx":28,"ny":28,"refTime":"2023-10-13T03:00:00:Z","depth":"2","parameterNumber":2,"parameterNumberName":"U-component_of_CURRENTS"},"data":[0,0,0,0,0,0,0,0,0,0,0,0,0,0,0,0,0,0,0,0,0,0,0,0,0,0,0,0,0,0,0,0,0,0,0,0,0,0,0,0,0,0,0,0,0,0,0,0,0,0,0,0,0,0,0,0,0,0,0.1959,0.1961,0,0.2039,0.2039,0.2038,0.2068,0.2069,0.207,0.2071,0.2168,0.217,0.2171,0,0,0,0,0,0,0,0,0,0,0,0,0,0.1902,0.1901,0.1959,0.1961,0.1963,0.2039,0.2039,0.2038,0.2068,0.2069,0.207,0.2071,0.2167,0.2169,0.2171,0,0,0,0,0,0,0,0,0,0,0,0,0,0.1936,0.1901,0.1959,0.1997,0.2002,0.2039,0.2039,0.2038,0.2067,0.2069,0.207,0.2072,0.2167,0.2169,0.2172,0.2159,0,0,0.218,0.2181,0,0,0,0,0,0,0,0,0.1934,0.1936,0.1989,0.1994,0.2,0.2056,0.2055,0.2084,0.2067,0.2029,0.2071,0.2072,0.214,0.2145,0.2137,0.2164,0.2168,0.218,0.2181,0.2182,0.2183,0,0,0,0,0,0,0,0.1931,0.1934,0.1977,0.1992,0.1999,0.2035,0.2039,0.206,0.2065,0.2032,0.2038,0.2067,0.2141,0.2135,0.214,0.2169,0.218,0.2182,0.2184,0.2185,0.228,0.2281,0,0,0,0,0,0,0.1943,0.1931,0.1975,0.1981,0.1985,0.2036,0.204,0.2026,0.2065,0.2076,0.2066,0.2069,0.213,0.2137,0.2144,0.225,0.2182,0.2185,0.2186,0.2279,0.228,0.2281,0,0,0,0,0,0,0.194,0.1944,0.1972,0.1971,0.1979,0.2036,0.202,0.2027,0.2052,0.2093,0.2102,0.2089,0.2131,0.214,0.2202,0.225,0.2186,0.2188,0.2278,0.2279,0.2281,0.2387,0,0,0,0,0,0,0.1937,0.1941,0.1959,0.197,0.198,0.1991,0.2021,0.2028,0.2073,0.2077,0.2115,0.2124,0.2133,0.2198,0.2204,0.2252,0.219,0.2276,0.2278,0.228,0.2382,0.2392,0.24,0,0,0,0,0,0.1934,0.1944,0.1958,0.1967,0.1993,0.1992,0.1998,0.2037,0.2073,0.2066,0.2125,0.2124,0.2213,0.2201,0.2208,0.2258,0.2275,0.2278,0.228,0.2378,0.239,0.24,0,0,0,0,0,0,0.1919,0.195,0.1965,0.1981,0.199,0.2002,0.2029,0.2051,0.2087,0.2129,0.2145,0.2157,0.2226,0.2218,0.2204,0.2286,0.2241,0.2245,0.2313,0.2324,0.2333,0.2323,0.2192,0,0,0,0,0,0.1928,0.1951,0.1962,0.198,0.1984,0.201,0.2032,0.2062,0.2095,0.2113,0.2155,0.2199,0.2232,0.2261,0.2285,0.2334,0.2321,0.2364,0.2373,0.2381,0.2375,0.2413,0.2425,0.2288,0.2288,0.2288,0,0,0.1942,0.1957,0.1979,0.1983,0.1997,0.2023,0.2022,0.2066,0.2112,0.2121,0.2212,0.2239,0.225,0.2313,0.2341,0.2321,0.2413,0.2384,0.2391,0.238,0.2417,0.243,0.2442,0.229,0.229,0.2289,0,0,0.1983,0.1972,0.2017,0.2022,0.2068,0.2065,0.2082,0.2121,0.2154,0.2231,0.2259,0.2301,0.2368,0.2376,0.2387,0.2449,0.2459,0.2479,0.2528,0.2566,0.2578,0.2588,0.259,0.26,0.2486,0.2487,0.2487,0,0.2045,0.2034,0.2027,0.2065,0.208,0.2085,0.2121,0.2149,0.2222,0.2247,0.2277,0.2375,0.2383,0.2437,0.247,0.247,0.25,0.2494,0.258,0.259,0.2599,0.2599,0.2608,0.2492,0.2491,0.2491,0.249,0,0.206,0.2105,0.2118,0.2158,0.2168,0.2188,0.2219,0.2243,0.2291,0.234,0.2422,0.2452,0.2494,0.2517,0.2523,0.2596,0.26,0.2591,0.2559,0.262,0.2615,0.2623,0.25,0.2498,0.2496,0.2495,0,0,0.2109,0.2139,0.2149,0.2186,0.2212,0.2217,0.2263,0.2281,0.2322,0.2416,0.2465,0.254,0.2576,0.2587,0.261,0.2653,0.2736,0.2675,0.2675,0.2687,0.2835,0.2812,0.2817,0.2786,0.2788,0.2789,0.2807,0,0.2143,0.2194,0.2196,0.2268,0.2295,0.2287,0.2312,0.2354,0.2395,0.2448,0.2496,0.2571,0.2602,0.2643,0.2697,0.273,0.2765,0.2731,0.2764,0.2763,0.2745,0.2828,0.2596,0.2592,0.2814,0.2815,0.2816,0,0.2153,0.2185,0.2238,0.2301,0.2306,0.2359,0.235,0.2392,0.2444,0.2478,0.256,0.2613,0.2691,0.2701,0.2807,0.2812,0.283,0.2848,0.2849,0.2793,0.2756,0.2565,0.2597,0.2829,0.2828,0.2827,0.2826,0,0.2133,0.222,0.2243,0.2263,0.2326,0.2357,0.2383,0.2425,0.2442,0.2524,0.2563,0.2663,0.2738,0.2792,0.287,0.2855,0.298,0.2933,0.2914,0.291,0.2692,0.2667,0.298,0.298,0.298,0.298,0.298,0,0.2126,0.2187,0.2254,0.2284,0.2317,0.2385,0.2435,0.2446,0.2494,0.2533,0.2621,0.2678,0.2786,0.2875,0.2894,0.2963,0.2999,0.2934,0.2929,0.2721,0.27,0.2881,0.2869,0.2981,0.2981,0.2981,0.2981,0,0.2125,0.2158,0.2216,0.2288,0.2331,0.2357,0.2446,0.2457,0.2536,0.2581,0.2612,0.2726,0.2843,0.2926,0.301,0.3007,0.3036,0.3037,0.2782,0.2748,0.2915,0.2909,0.2976,0.2976,0.2975,0.2975,0.2975,0,0.2124,0.2155,0.221,0.2217,0.2274,0.2347,0.2373,0.2452,0.2462,0.2606,0.2603,0.2767,0.2824,0.2962,0.2957,0.2966,0.3052,0.2794,0.2695,0.2935,0.2923,0.2916,0.291,0.2431,0.2426,0.2422,0.2419,0,0.2118,0.2129,0.2132,0.215,0.2192,0.2234,0.2311,0.2316,0.2404,0.2455,0.257,0.2649,0.2785,0.2717,0.2767,0.2742,0.277,0.2717,0.305,0.249,0.2428,0.2414,0.2424,0.2386,0.2389,0.2391,0.2393,0.2395,0.209,0.2061,0.2043,0.2053,0.2092,0.2126,0.2147,0.2195,0.2217,0.2242,0.2404,0.2426,0.25,0.2409,0.2394,0.2407,0.2566,0.2479,0.2487,0.25,0.2456,0.24,0.234,0.2343,0.2346,0.2348,0.235,0,0.2032,0.2002,0.1965,0.1951,0.1941,0.2036,0.2085,0.2037,0.2048,0.204,0.2103,0.194,0.1907,0.2004,0.1945,0.1997,0.193,0.1963,0.1847,0.1884,0.1916,0.1837,0.156,0.1557,0.1555,0.1553,0,0,0.1985,0.1927,0.1891,0.1821,0.1847,0.1848,0.1885,0.1807,0.1765,0.1638,0.1597,0.1676,0.1846,0.1592,0.1639,0.1587,0.1698,0.1532,0.2167,0.2059,0.2086,0.2227,0.2151,0,0,0,0,0]},{"header":{"parameterUnit":"m.s-1","parameterCategory":2,"la1":30.2991,"la2":30.254,"lo1":-89.0895,"lo2":-89.0444,"dy":0.0017,"dx":0.0017,"nx":28,"ny":28,"refTime":"2023-10-13T03:00:00:Z","depth":"2","parameterNumber":3,"parameterNumberName":"V-component_of_CURRENTS"},"data":[0,0,0,0,0,0,0,0,0,0,0,0,0,0,0,0,0,0,0,0,0,0,0,0,0,0,0,0,0,0,0,0,0,0,0,0,0,0,0,0,0,0,0,0,0,0,0,0,0,0,0,0,0,0,0,0,0,0,0.0931,0.0931,0,0.0885,0.0885,0.0884,0.0835,0.0834,0.0833,0.0833,0.071,0.0708,0.0705,0,0,0,0,0,0,0,0,0,0,0,0,0,0.0942,0.0943,0.0932,0.0931,0.093,0.0885,0.0885,0.0884,0.0835,0.0834,0.0833,0.0832,0.0711,0.0708,0.0705,0,0,0,0,0,0,0,0,0,0,0,0,0,0.0921,0.0943,0.0932,0.09,0.0897,0.0885,0.0885,0.0884,0.0835,0.0834,0.0833,0.0832,0.0712,0.0708,0.0704,0.0701,0,0,0.0692,0.0691,0,0,0,0,0,0,0,0,0.0922,0.0921,0.0906,0.0903,0.0899,0.0865,0.0843,0.0819,0.0835,0.0858,0.0833,0.0831,0.0755,0.0748,0.0742,0.0695,0.069,0.0692,0.069,0.0688,0.0687,0,0,0,0,0,0,0,0.0924,0.0922,0.0913,0.0905,0.0901,0.0877,0.0873,0.0839,0.0812,0.0856,0.0853,0.0848,0.0753,0.0747,0.0739,0.0688,0.0692,0.0689,0.0686,0.0685,0.0606,0.0606,0,0,0,0,0,0,0.0933,0.0924,0.0915,0.0912,0.0908,0.0878,0.0873,0.0877,0.0814,0.0804,0.0849,0.0846,0.0754,0.0744,0.0734,0.0727,0.0688,0.0684,0.0682,0.0606,0.0606,0.0606,0,0,0,0,0,0,0.0934,0.0933,0.0916,0.0916,0.0912,0.0879,0.0883,0.0876,0.087,0.0809,0.0797,0.085,0.0753,0.074,0.071,0.0722,0.0682,0.0679,0.0605,0.0606,0.0606,0.0712,0,0,0,0,0,0,0.0934,0.0934,0.094,0.0917,0.0913,0.092,0.0884,0.0876,0.0869,0.0865,0.0806,0.0793,0.0751,0.0716,0.0706,0.0716,0.0676,0.0605,0.0606,0.0606,0.0708,0.0716,0.0722,0,0,0,0,0,0.0935,0.0952,0.0941,0.0939,0.0922,0.0921,0.0917,0.0889,0.087,0.0878,0.0835,0.0795,0.0711,0.0714,0.0701,0.071,0.0605,0.0606,0.0606,0.0705,0.0714,0.0722,0,0,0,0,0,0,0.0967,0.0948,0.0935,0.0947,0.0938,0.0913,0.0914,0.0898,0.0872,0.0866,0.0804,0.0789,0.0765,0.0723,0.0727,0.0687,0.0649,0.0648,0.0729,0.0737,0.0744,0.0771,0.0673,0,0,0,0,0,0.0976,0.0981,0.0962,0.0974,0.0969,0.0944,0.0939,0.0927,0.0901,0.0889,0.0847,0.0798,0.0759,0.0738,0.0698,0.0682,0.0643,0.0676,0.0683,0.069,0.0702,0.0662,0.0668,0.0608,0.0608,0.0608,0,0,0.0998,0.0983,0.0989,0.098,0.0967,0.0982,0.0939,0.0944,0.0955,0.0879,0.0874,0.0824,0.076,0.0741,0.0726,0.0708,0.0685,0.069,0.0697,0.0706,0.0663,0.0669,0.0675,0.0609,0.0609,0.0609,0,0,0.1044,0.1024,0.1046,0.1047,0.1036,0.1015,0.1021,0.1002,0.0988,0.0983,0.0925,0.0885,0.0834,0.0788,0.0759,0.078,0.0726,0.0765,0.0825,0.0786,0.0791,0.0795,0.0755,0.0755,0.0769,0.0769,0.0769,0,0.1069,0.1096,0.1054,0.108,0.1088,0.1035,0.1072,0.1053,0.1029,0.102,0.0994,0.0914,0.0856,0.0825,0.0832,0.0798,0.0771,0.0802,0.0798,0.0801,0.0804,0.0761,0.076,0.0774,0.0773,0.0773,0.0772,0,0.1136,0.1163,0.1177,0.1185,0.1182,0.121,0.1177,0.1164,0.1133,0.1116,0.1083,0.1008,0.0959,0.0931,0.089,0.0875,0.0849,0.0815,0.0784,0.0816,0.0769,0.0765,0.0781,0.0779,0.0778,0.0777,0,0,0.1194,0.122,0.1229,0.1261,0.1248,0.126,0.1253,0.1243,0.125,0.1204,0.1206,0.1129,0.1087,0.105,0.0983,0.0947,0.0932,0.0902,0.0897,0.0876,0.0854,0.082,0.0812,0.0906,0.0906,0.0906,0.0816,0,0.1266,0.1338,0.1325,0.14,0.1435,0.1387,0.139,0.1368,0.1332,0.1316,0.1228,0.121,0.1133,0.1117,0.1066,0.0969,0.0927,0.096,0.0813,0.0809,0.0786,0.0809,0.0781,0.0698,0.0811,0.0811,0.081,0,0.1338,0.138,0.1462,0.151,0.152,0.1547,0.1535,0.1542,0.1486,0.1461,0.141,0.1343,0.1275,0.1207,0.1064,0.1094,0.0988,0.0906,0.09,0.0832,0.0769,0.068,0.0686,0.0803,0.0804,0.0804,0.0805,0,0.1394,0.1477,0.1543,0.1567,0.1602,0.162,0.1627,0.1588,0.1596,0.1561,0.1559,0.1461,0.1417,0.1283,0.1109,0.1094,0.0951,0.0899,0.0763,0.0759,0.0687,0.0677,0.0799,0.0799,0.0799,0.0799,0.0799,0,0.1471,0.1535,0.1584,0.1633,0.1708,0.1706,0.1768,0.1743,0.1726,0.1738,0.1653,0.1634,0.1438,0.1321,0.1154,0.0958,0.098,0.0783,0.0738,0.0722,0.0717,0.0767,0.0765,0.0796,0.0796,0.0797,0.0798,0,0.1516,0.1556,0.1642,0.1708,0.1739,0.1789,0.1855,0.1894,0.1873,0.1877,0.1873,0.1767,0.1622,0.1413,0.119,0.1022,0.0836,0.0755,0.0752,0.0709,0.0654,0.0658,0.0593,0.0591,0.059,0.0588,0.0587,0,0.1539,0.1591,0.1691,0.1749,0.179,0.1878,0.1934,0.1954,0.1976,0.1951,0.1943,0.1833,0.1748,0.1431,0.1116,0.0824,0.0809,0.0615,0.057,0.0672,0.0635,0.0642,0.0647,0.0509,0.0507,0.0506,0.0505,0,0.1574,0.1603,0.1667,0.179,0.1879,0.1969,0.2038,0.2072,0.2074,0.2102,0.2065,0.2018,0.1705,0.1391,0.1017,0.0822,0.0661,0.0577,0.0684,0.0575,0.0588,0.0553,0.0563,0.0493,0.0494,0.0495,0.0496,0.0496,0.1572,0.1621,0.1702,0.1828,0.1921,0.2001,0.2058,0.2132,0.2188,0.2169,0.2134,0.2027,0.1714,0.1182,0.0861,0.0516,0.0571,0.0434,0.044,0.0447,0.0463,0.0474,0.036,0.036,0.036,0.0361,0.0361,0,0.156,0.1631,0.1744,0.186,0.1941,0.1979,0.2082,0.2147,0.2222,0.2186,0.2173,0.1789,0.1481,0.1113,0.0575,0.0309,0.029,0.0218,0.0245,0.0261,0.0273,0.0281,0.0129,0.0127,0.0125,0.0124,0,0,0.1552,0.1646,0.1732,0.1851,0.1905,0.1976,0.2014,0.2141,0.216,0.2125,0.1996,0.1926,0.1501,0.1055,0.0699,0.039,0.0386,0.0335,0.0555,0.0646,0.066,0.0436,0.0471,0,0,0,0,0]}],[{"header":{"parameterUnit":"m.s-1","parameterCategory":2,"la1":30.2991,"la2":30.254,"lo1":-89.0895,"lo2":-89.0444,"dy":0.0017,"dx":0.0017,"nx":28,"ny":28,"refTime":"2023-10-13T03:00:00:Z","depth":"4","parameterNumber":2,"parameterNumberName":"U-component_of_CURRENTS"},"data":[0,0,0,0,0,0,0,0,0,0,0,0,0,0,0,0,0,0,0,0,0,0,0,0,0,0,0,0,0,0,0,0,0,0,0,0,0,0,0,0,0,0,0,0,0,0,0,0,0,0,0,0,0,0,0,0,0,0,0.0756,0.0757,0,0.0801,0.0802,0.0802,0.0832,0.0832,0.0833,0.0833,0.0889,0.089,0.0891,0,0,0,0,0,0,0,0,0,0,0,0,0,0.0675,0.0676,0.0756,0.0757,0.0758,0.0801,0.0802,0.0802,0.0832,0.0832,0.0833,0.0833,0.0888,0.089,0.0891,0,0,0,0,0,0,0,0,0,0,0,0,0,0.0713,0.0677,0.0756,0.0779,0.0782,0.0801,0.0802,0.0802,0.0832,0.0832,0.0833,0.0833,0.0888,0.089,0.0891,0.0892,0,0,0.0897,0.0898,0,0,0,0,0,0,0,0,0.0711,0.0715,0.0775,0.0777,0.078,0.0813,0.0794,0.0833,0.0832,0.0811,0.0833,0.0833,0.0865,0.0869,0.0874,0.0895,0.0897,0.0897,0.0898,0.0899,0.0899,0,0,0,0,0,0,0,0.0708,0.0714,0.0773,0.0776,0.0779,0.078,0.0786,0.0801,0.0834,0.0813,0.0816,0.0823,0.0866,0.0872,0.0875,0.0898,0.0897,0.0898,0.09,0.09,0.1016,0.1018,0,0,0,0,0,0,0.0706,0.0711,0.0771,0.0774,0.0748,0.0781,0.0787,0.0801,0.0833,0.0839,0.0822,0.0824,0.0869,0.0873,0.0877,0.0951,0.0899,0.09,0.0901,0.1014,0.1016,0.1019,0,0,0,0,0,0,0.0704,0.0711,0.077,0.0744,0.0752,0.0782,0.0796,0.0801,0.0829,0.0841,0.0847,0.0847,0.0869,0.0875,0.0928,0.0951,0.0901,0.0903,0.1012,0.1015,0.1018,0.1053,0,0,0,0,0,0,0.0702,0.071,0.0726,0.0745,0.0754,0.0801,0.0796,0.0802,0.0832,0.0835,0.0864,0.0868,0.087,0.0926,0.093,0.0952,0.0904,0.1009,0.1013,0.1017,0.1049,0.1056,0.1063,0,0,0,0,0,0.0699,0.0719,0.0726,0.0734,0.0772,0.0803,0.0808,0.0828,0.0833,0.0853,0.0883,0.0868,0.0953,0.0929,0.0934,0.0956,0.1007,0.1012,0.1016,0.1046,0.1055,0.1063,0,0,0,0,0,0,0.0694,0.0725,0.0733,0.0763,0.0789,0.0809,0.0831,0.0841,0.0878,0.0889,0.0895,0.0903,0.0956,0.0959,0.0933,0.1004,0.0977,0.0982,0.0998,0.1006,0.1013,0.1024,0.0906,0,0,0,0,0,0.0698,0.0725,0.075,0.0777,0.0792,0.0814,0.0831,0.0848,0.0878,0.0895,0.0919,0.0948,0.0973,0.0994,0.1018,0.1057,0.1057,0.1077,0.1084,0.109,0.1104,0.1123,0.1133,0.1033,0.1033,0.1033,0,0,0.0699,0.0725,0.0737,0.0778,0.08,0.0826,0.0827,0.0865,0.0893,0.0895,0.0954,0.0975,0.0991,0.1039,0.1062,0.1046,0.1119,0.1095,0.11,0.1112,0.1129,0.1138,0.1147,0.1037,0.1036,0.1036,0,0,0.071,0.0744,0.0763,0.0789,0.0831,0.0853,0.0869,0.0908,0.0934,0.0986,0.0997,0.1043,0.1081,0.1103,0.1114,0.1178,0.1155,0.1181,0.1224,0.1242,0.125,0.1257,0.1267,0.1274,0.1184,0.1184,0.1184,0,0.0709,0.074,0.0774,0.08,0.0828,0.0867,0.0894,0.0926,0.0981,0.1013,0.1015,0.1096,0.1111,0.1162,0.119,0.1192,0.1195,0.1184,0.1249,0.1256,0.1262,0.1271,0.1278,0.1187,0.1186,0.1186,0.1186,0,0.0723,0.0756,0.0775,0.0823,0.0861,0.0897,0.0944,0.0998,0.1037,0.1064,0.1137,0.1167,0.1218,0.1225,0.1228,0.1286,0.1271,0.1251,0.122,0.1274,0.128,0.1287,0.119,0.1189,0.1188,0.1188,0,0,0.0699,0.0768,0.0777,0.0805,0.0879,0.0912,0.0982,0.105,0.1099,0.1155,0.1213,0.1268,0.1293,0.131,0.132,0.1339,0.1387,0.1322,0.1322,0.132,0.1424,0.1339,0.1338,0.1372,0.1374,0.1375,0.1408,0,0.07,0.075,0.079,0.0849,0.0882,0.0952,0.1008,0.1081,0.1148,0.1219,0.1262,0.132,0.1319,0.1352,0.1376,0.139,0.1409,0.138,0.1384,0.1384,0.1292,0.1345,0.1381,0.1413,0.1415,0.1416,0.1417,0,0.0696,0.0738,0.0788,0.0871,0.0892,0.0938,0.1058,0.1117,0.1222,0.1271,0.1347,0.138,0.145,0.1426,0.148,0.1461,0.1457,0.1452,0.1452,0.1368,0.1314,0.1352,0.143,0.1429,0.1428,0.1427,0.1426,0,0.0669,0.0739,0.0785,0.081,0.0905,0.0957,0.1026,0.1139,0.1197,0.1322,0.1369,0.1447,0.1493,0.1511,0.1527,0.151,0.1559,0.1527,0.1444,0.1438,0.1485,0.1478,0.1556,0.1556,0.1556,0.1556,0.1556,0,0.0655,0.069,0.0777,0.0802,0.086,0.0949,0.1035,0.1116,0.1232,0.1292,0.1396,0.1439,0.1517,0.1553,0.1551,0.1527,0.1582,0.1468,0.1446,0.15,0.1494,0.149,0.1482,0.1557,0.1557,0.1557,0.1556,0,0.0608,0.0664,0.0711,0.0813,0.0846,0.0895,0.1022,0.1083,0.1206,0.1293,0.1334,0.1453,0.1506,0.1558,0.1592,0.1547,0.1536,0.1507,0.1575,0.1554,0.1396,0.139,0.1423,0.142,0.1418,0.1416,0.1414,0,0.0584,0.0606,0.0699,0.0727,0.0772,0.086,0.0916,0.1053,0.112,0.1274,0.1298,0.1404,0.1465,0.1449,0.1512,0.152,0.1493,0.1482,0.1435,0.141,0.1386,0.1383,0.138,0.1411,0.141,0.141,0.1409,0,0.0533,0.0567,0.0608,0.0665,0.0721,0.077,0.0869,0.09,0.1055,0.1175,0.1231,0.1278,0.1337,0.1383,0.1412,0.1405,0.1491,0.1458,0.1462,0.1417,0.1396,0.1374,0.1373,0.1402,0.1403,0.1403,0.1404,0,0.0487,0.0494,0.055,0.0594,0.0643,0.0659,0.0724,0.0805,0.0881,0.1066,0.1075,0.1189,0.1305,0.1322,0.1338,0.1348,0.1321,0.1267,0.128,0.1289,0.1235,0.1187,0.1123,0,0,0,0,0,0.0435,0.0442,0.0479,0.0508,0.0548,0.0576,0.068,0.0756,0.0902,0.0908,0.0996,0.1048,0.1109,0.1172,0.1155,0.1276,0.1318,0.125,0.1258,0.1359,0.1368,0.1319,0,0,0,0,0,0,0.0403,0.0425,0.045,0.0423,0.0425,0.0454,0.0507,0.0607,0.0633,0.0791,0.0832,0.0965,0.1041,0.1093,0.1123,0.1145,0.1125,0.1338,0.1335,0.1354,0.1362,0.137,0.1322,0,0,0,0,0]},{"header":{"parameterUnit":"m.s-1","parameterCategory":2,"la1":30.2991,"la2":30.254,"lo1":-89.0895,"lo2":-89.0444,"dy":0.0017,"dx":0.0017,"nx":28,"ny":28,"refTime":"2023-10-13T03:00:00:Z","depth":"4","parameterNumber":3,"parameterNumberName":"V-component_of_CURRENTS"},"data":[0,0,0,0,0,0,0,0,0,0,0,0,0,0,0,0,0,0,0,0,0,0,0,0,0,0,0,0,0,0,0,0,0,0,0,0,0,0,0,0,0,0,0,0,0,0,0,0,0,0,0,0,0,0,0,0,0,0,0.0584,0.0584,0,0.0572,0.0572,0.0572,0.0571,0.0571,0.0571,0.0571,0.0527,0.0526,0.0525,0,0,0,0,0,0,0,0,0,0,0,0,0,0.058,0.058,0.0584,0.0584,0.0584,0.0572,0.0572,0.0572,0.0571,0.0571,0.0571,0.0571,0.0528,0.0526,0.0525,0,0,0,0,0,0,0,0,0,0,0,0,0,0.0577,0.058,0.0584,0.0581,0.0581,0.0572,0.0572,0.0572,0.0571,0.0571,0.0571,0.0571,0.0528,0.0527,0.0525,0.0512,0,0,0.0519,0.0518,0,0,0,0,0,0,0,0,0.0577,0.0577,0.0582,0.0581,0.0581,0.0572,0.0555,0.055,0.0571,0.0575,0.0571,0.0571,0.0539,0.0536,0.0535,0.051,0.0508,0.0519,0.0518,0.0517,0.0517,0,0,0,0,0,0,0,0.0577,0.0577,0.058,0.0582,0.0581,0.0572,0.0572,0.0554,0.0557,0.0575,0.0574,0.0572,0.0539,0.0537,0.0534,0.0507,0.0519,0.0517,0.0516,0.0516,0.0475,0.0475,0,0,0,0,0,0,0.0579,0.0578,0.058,0.058,0.0578,0.0572,0.0572,0.0576,0.0557,0.0555,0.0572,0.0572,0.054,0.0536,0.0533,0.0537,0.0517,0.0515,0.0514,0.0475,0.0475,0.0475,0,0,0,0,0,0,0.0579,0.0579,0.0581,0.0577,0.0577,0.0572,0.0576,0.0575,0.0586,0.0556,0.0553,0.0585,0.054,0.0535,0.053,0.0534,0.0515,0.0513,0.0475,0.0475,0.0475,0.0532,0,0,0,0,0,0,0.0579,0.058,0.0589,0.0578,0.0577,0.0588,0.0576,0.0575,0.0584,0.0584,0.0566,0.0561,0.054,0.0533,0.0528,0.0531,0.0512,0.0475,0.0475,0.0475,0.053,0.0533,0.0537,0,0,0,0,0,0.0579,0.059,0.0589,0.059,0.0588,0.0588,0.0588,0.0584,0.0584,0.0594,0.0581,0.0562,0.0529,0.0532,0.0526,0.0529,0.0475,0.0475,0.0475,0.0528,0.0533,0.0537,0,0,0,0,0,0,0.0594,0.059,0.059,0.06,0.06,0.0588,0.0596,0.0594,0.0592,0.0595,0.0568,0.0563,0.0557,0.0535,0.0539,0.0515,0.0496,0.0495,0.0538,0.0542,0.0546,0.0553,0.051,0,0,0,0,0,0.0601,0.0613,0.0603,0.0617,0.0615,0.0609,0.0611,0.061,0.0604,0.0604,0.0591,0.0571,0.055,0.0543,0.0523,0.0515,0.0482,0.051,0.0514,0.0517,0.0517,0.0469,0.0469,0.0476,0.0476,0.0476,0,0,0.0612,0.0613,0.062,0.0621,0.062,0.0626,0.0612,0.0621,0.0627,0.0598,0.0607,0.0586,0.0551,0.0542,0.0537,0.0527,0.0499,0.0517,0.052,0.0519,0.0469,0.0469,0.0468,0.0476,0.0476,0.0476,0,0,0.0638,0.064,0.0655,0.0654,0.0656,0.0651,0.0657,0.0653,0.0653,0.0654,0.0632,0.0618,0.0593,0.0568,0.0551,0.056,0.052,0.0554,0.0577,0.0531,0.053,0.0529,0.0495,0.049,0.0555,0.0555,0.0555,0,0.0651,0.0668,0.066,0.067,0.0676,0.0665,0.0681,0.0674,0.0672,0.0669,0.0664,0.0626,0.0601,0.0578,0.0583,0.0568,0.054,0.0568,0.0536,0.0534,0.0532,0.0497,0.0492,0.0557,0.0557,0.0557,0.0556,0,0.0678,0.0695,0.0704,0.0714,0.072,0.0733,0.0721,0.0729,0.0726,0.0712,0.0698,0.0665,0.0642,0.0628,0.0609,0.0584,0.0569,0.0549,0.0529,0.0535,0.0498,0.0491,0.0561,0.056,0.0559,0.0559,0,0,0.0697,0.072,0.0725,0.0744,0.0746,0.0757,0.0764,0.0763,0.077,0.0751,0.0748,0.071,0.0694,0.0672,0.0644,0.0604,0.0568,0.0577,0.0573,0.0549,0.0475,0.0469,0.046,0.0544,0.0542,0.0542,0.0459,0,0.0722,0.076,0.0761,0.0801,0.0818,0.0812,0.082,0.0818,0.0806,0.0797,0.0749,0.0737,0.0708,0.0706,0.0659,0.059,0.0551,0.0593,0.0466,0.0463,0.0461,0.0452,0.0538,0.0453,0.0451,0.045,0.0449,0,0.0743,0.077,0.0817,0.0851,0.0857,0.0884,0.0903,0.091,0.0881,0.0865,0.0836,0.0797,0.0746,0.0719,0.06,0.063,0.0562,0.0502,0.0497,0.0466,0.0443,0.0441,0.0435,0.0436,0.0438,0.0438,0.0439,0,0.0767,0.0807,0.0855,0.0866,0.0897,0.0928,0.0951,0.0943,0.0953,0.0921,0.0915,0.0837,0.0815,0.0707,0.0596,0.0596,0.0457,0.0437,0.0366,0.0365,0.0371,0.0373,0.035,0.035,0.035,0.0351,0.0351,0,0.0785,0.0823,0.0881,0.0909,0.0966,0.0979,0.1033,0.1028,0.1029,0.1043,0.0968,0.0954,0.0811,0.0719,0.0603,0.0466,0.0461,0.0367,0.0339,0.0398,0.0404,0.0366,0.0369,0.0348,0.0348,0.0349,0.0349,0,0.0796,0.0832,0.089,0.0954,0.0984,0.1031,0.1104,0.1135,0.1124,0.1141,0.1138,0.1042,0.0927,0.0776,0.06,0.0491,0.0349,0.0304,0.0389,0.0368,0.0285,0.0292,0.0207,0.0206,0.0205,0.0205,0.0204,0,0.0801,0.0838,0.0933,0.098,0.102,0.11,0.1157,0.1185,0.1216,0.1197,0.1202,0.1108,0.1029,0.0771,0.0608,0.0377,0.0347,0.0259,0.0259,0.0287,0.0268,0.0277,0.0284,0.0203,0.0203,0.0202,0.0202,0,0.0806,0.0852,0.0899,0.1004,0.1088,0.1168,0.1254,0.1282,0.1311,0.1305,0.1249,0.1117,0.0986,0.0783,0.0609,0.0443,0.03,0.025,0.025,0.0249,0.028,0.0265,0.0273,0.0199,0.02,0.02,0.02,0,0.0808,0.0846,0.0925,0.1011,0.1111,0.1206,0.1255,0.1302,0.1331,0.1314,0.1301,0.1151,0.1071,0.0818,0.0655,0.0491,0.0444,0.0364,0.0357,0.0358,0.0423,0.0486,0.0442,0,0,0,0,0,0.0799,0.0853,0.0931,0.1029,0.1127,0.1203,0.1298,0.134,0.1381,0.1351,0.1325,0.1203,0.0957,0.0847,0.0685,0.0633,0.0411,0.0432,0.0316,0.0183,0.0187,0.0235,0,0,0,0,0,0,0.0798,0.0871,0.0919,0.1024,0.1106,0.1228,0.1302,0.1339,0.1315,0.1324,0.1201,0.1143,0.0913,0.106,0.0678,0.0629,0.0524,0.0326,0.0322,0.0181,0.0184,0.0187,0.0238,0,0,0,0,0]}]]